[[{"header":{"parameterUnit":"m.s-1","parameterCategory":1,"la1":30.2991,"la2":30.254,"lo1":-89.0895,"lo2":-89.0444,"dy":0.0017,"dx":0.0017,"nx":28,"ny":28,"refTime":"2023-09-27T09:00:00:Z","depth":0,"parameterNumber":2,"parameterNumberName":"U-component_of_WINDS"},"data":[0,0,0,0,0,0,0,0,0,0,0,0,0,0,0,0,0,0,0,0,0,0,0,0,0,0,0,0,0,0,0,0,0,0,0,0,0,0,0,0,0,0,0,0,0,0,0,0,0,0,0,0,0,0,0,0,0,0,-4.5257,-4.5257,0,-4.5281,-4.5282,-4.5282,-4.5156,-4.5152,-4.5149,-4.5145,-4.5172,-4.5176,-4.5181,0,0,0,0,0,0,0,0,0,0,0,0,0,-4.5103,-4.5106,-4.5257,-4.5257,-4.5257,-4.5281,-4.5282,-4.5282,-4.5157,-4.5152,-4.5148,-4.5144,-4.5171,-4.5176,-4.5181,0,0,0,0,0,0,0,0,0,0,0,0,0,-4.5153,-4.5107,-4.5257,-4.5198,-4.5193,-4.5281,-4.5282,-4.5282,-4.5158,-4.5152,-4.5147,-4.5142,-4.517,-4.5175,-4.5182,-4.5329,0,0,-4.52,-4.5203,0,0,0,0,0,0,0,0,-4.515,-4.5159,-4.5206,-4.5202,-4.5196,-4.521,-4.5237,-4.5298,-4.5159,-4.5171,-4.5145,-4.5139,-4.519,-4.5194,-4.521,-4.533,-4.5331,-4.5201,-4.5205,-4.5207,-4.5209,0,0,0,0,0,0,0,-4.5147,-4.5157,-4.5266,-4.5207,-4.5201,-4.517,-4.5171,-4.5248,-4.5211,-4.517,-4.516,-4.5165,-4.5186,-4.5205,-4.521,-4.5331,-4.5201,-4.5206,-4.521,-4.5212,-4.5574,-4.5579,0,0,0,0,0,0,-4.5151,-4.5155,-4.5266,-4.5267,-4.5159,-4.5178,-4.5179,-4.5211,-4.5209,-4.5204,-4.517,-4.5159,-4.5197,-4.5203,-4.521,-4.5383,-4.5207,-4.5213,-4.5217,-4.5568,-4.5575,-4.5581,0,0,0,0,0,0,-4.5148,-4.5162,-4.5265,-4.5209,-4.5219,-4.5186,-4.5223,-4.5215,-4.5233,-4.5209,-4.5202,-4.5196,-4.5193,-4.5202,-4.53,-4.5383,-4.5216,-4.5221,-4.5561,-4.557,-4.5578,-4.573,0,0,0,0,0,0,-4.5144,-4.5162,-4.5217,-4.5211,-4.5223,-4.5354,-4.5228,-4.5219,-4.5244,-4.523,-4.5232,-4.5227,-4.5189,-4.5292,-4.5306,-4.5388,-4.5226,-4.5553,-4.5565,-4.5575,-4.5718,-4.5743,-4.5765,0,0,0,0,0,-4.5139,-4.5259,-4.5221,-4.5235,-4.5291,-4.5359,-4.5366,-4.5319,-4.5251,-4.5307,-4.5291,-4.5227,-4.5371,-4.5303,-4.5318,-4.5403,-4.5548,-4.5562,-4.5574,-4.5707,-4.5738,-4.5764,0,0,0,0,0,0,-4.5277,-4.5257,-4.5214,-4.5336,-4.535,-4.5338,-4.5406,-4.5354,-4.5388,-4.5374,-4.5315,-4.5317,-4.5426,-4.5423,-4.5348,-4.5545,-4.5448,-4.5465,-4.5543,-4.5572,-4.5596,-4.5595,-4.5231,0,0,0,0,0,-4.5321,-4.5377,-4.5357,-4.5466,-4.5476,-4.544,-4.5468,-4.5431,-4.5444,-4.5449,-4.5441,-4.5456,-4.5505,-4.5538,-4.5581,-4.5716,-4.5715,-4.5782,-4.5806,-4.5825,-4.5841,-4.5913,-4.5943,-4.5625,-4.5625,-4.5624,0,0,-4.5413,-4.541,-4.5449,-4.5494,-4.5501,-4.5561,-4.5446,-4.5515,-4.5559,-4.546,-4.5552,-4.5547,-4.556,-4.5678,-4.5729,-4.568,-4.5929,-4.5842,-4.5858,-4.5863,-4.593,-4.596,-4.5987,-4.5634,-4.5632,-4.5631,0,0,-4.5613,-4.5615,-4.5707,-4.5716,-4.5727,-4.5703,-4.5725,-4.5721,-4.5713,-4.5805,-4.5732,-4.5784,-4.5869,-4.5881,-4.5899,-4.6103,-4.6046,-4.6119,-4.6243,-4.6314,-4.6339,-4.6361,-4.6436,-4.6463,-4.6135,-4.6135,-4.6135,0,-4.5727,-4.5814,-4.5761,-4.5835,-4.5857,-4.5769,-4.5862,-4.5873,-4.5899,-4.5916,-4.586,-4.5965,-4.5967,-4.6087,-4.6137,-4.6154,-4.6178,-4.6119,-4.634,-4.6361,-4.6381,-4.6451,-4.6479,-4.6144,-4.6143,-4.6142,-4.6141,0,-4.5954,-4.6016,-4.6089,-4.6116,-4.6146,-4.6229,-4.6188,-4.6225,-4.6186,-4.6167,-4.6262,-4.6262,-4.6304,-4.6329,-4.6291,-4.6445,-4.6414,-4.635,-4.625,-4.6421,-4.6486,-4.6513,-4.6157,-4.6153,-4.6151,-4.6149,0,0,-4.6243,-4.6238,-4.6266,-4.6277,-4.6283,-4.633,-4.6409,-4.645,-4.6484,-4.6504,-4.657,-4.6643,-4.6584,-4.6604,-4.6566,-4.6628,-4.6792,-4.6557,-4.6556,-4.6602,-4.6962,-4.7012,-4.7044,-4.6753,-4.6758,-4.6762,-4.6962,0,-4.6439,-4.6574,-4.6528,-4.6666,-4.6723,-4.6639,-4.6708,-4.672,-4.6705,-4.6752,-4.6734,-4.6788,-4.6705,-4.6717,-4.6775,-4.676,-4.6864,-4.6745,-4.6815,-4.6819,-4.6817,-4.7078,-4.713,-4.7319,-4.6987,-4.6991,-4.6994,0,-4.6687,-4.6717,-4.6861,-4.6857,-4.6879,-4.6942,-4.6976,-4.7021,-4.7033,-4.7017,-4.704,-4.6989,-4.7067,-4.6966,-4.7074,-4.6994,-4.702,-4.7017,-4.7023,-4.7029,-4.6918,-4.7093,-4.7378,-4.7407,-4.7033,-4.703,-4.7027,0,-4.6885,-4.6961,-4.7057,-4.7069,-4.7067,-4.7113,-4.7115,-4.712,-4.7148,-4.7178,-4.7195,-4.7234,-4.7255,-4.7287,-4.7248,-4.7178,-4.7362,-4.7257,-4.7352,-4.7354,-4.7396,-4.7395,-4.7691,-4.741,-4.741,-4.7409,-4.7409,0,-4.711,-4.7202,-4.7146,-4.7205,-4.7305,-4.7251,-4.7352,-4.7344,-4.735,-4.7407,-4.7336,-4.7391,-4.7336,-4.7386,-4.7356,-4.745,-4.746,-4.745,-4.7442,-4.7458,-4.746,-4.7475,-4.7462,-4.7417,-4.7415,-4.7414,-4.7412,0,-4.735,-4.7315,-4.7415,-4.7404,-4.7404,-4.7478,-4.747,-4.7524,-4.7504,-4.7576,-4.759,-4.7559,-4.7614,-4.7577,-4.7633,-4.7613,-4.7737,-4.7709,-4.7733,-4.7727,-4.7824,-4.7816,-4.8143,-4.8184,-4.7875,-4.7878,-4.7881,0,-4.7497,-4.7565,-4.7562,-4.7595,-4.7601,-4.7654,-4.7682,-4.7631,-4.7663,-4.7681,-4.7734,-4.7783,-4.7819,-4.7912,-4.7894,-4.7936,-4.791,-4.8022,-4.7916,-4.7931,-4.7914,-4.7911,-4.7918,-4.8044,-4.8047,-4.805,-4.8053,0,-4.7762,-4.7742,-4.7784,-4.7821,-4.7856,-4.7883,-4.7904,-4.7934,-4.7883,-4.7923,-4.7978,-4.8006,-4.8063,-4.8113,-4.8148,-4.815,-4.8094,-4.8086,-4.811,-4.8129,-4.8141,-4.8137,-4.7793,-4.8079,-4.8076,-4.8074,-4.8073,-4.8072,-4.796,-4.8018,-4.8025,-4.8074,-4.8085,-4.8106,-4.8157,-4.8143,-4.8188,-4.823,-4.8197,-4.8263,-4.8273,-4.8314,-4.8323,-4.8375,-4.8329,-4.8364,-4.8374,-4.8384,-4.8398,-4.8131,-4.8381,-4.838,-4.8379,-4.8378,-4.8378,0,-4.8224,-4.8224,-4.827,-4.8301,-4.8341,-4.8283,-4.8303,-4.834,-4.8399,-4.8413,-4.845,-4.8514,-4.8562,-4.8548,-4.8591,-4.8635,-4.8611,-4.8649,-4.8646,-4.8648,-4.8435,-4.8411,-4.8668,-4.8668,-4.8668,-4.8668,-4.8668,-4.8668,-4.8365,-4.846,-4.844,-4.8539,-4.8538,-4.8602,-4.8619,-4.8639,-4.8649,-4.8724,-4.8763,-4.8753,-4.8756,-4.8798,-4.884,-4.8835,-4.8855,-4.8903,-4.8889,-4.8691,-4.8662,-4.8635,-4.8612,-4.8907,-4.8907,-4.9096,-4.9098,-4.9099]},{"header":{"parameterUnit":"m.s-1","parameterCategory":1,"la1":30.2991,"la2":30.254,"lo1":-89.0895,"lo2":-89.0444,"dy":0.0017,"dx":0.0017,"nx":28,"ny":28,"refTime":"2023-09-27T09:00:00:Z","depth":0,"parameterNumber":3,"parameterNumberName":"V-component_of_WINDS"},"data":[0,0,0,0,0,0,0,0,0,0,0,0,0,0,0,0,0,0,0,0,0,0,0,0,0,0,0,0,0,0,0,0,0,0,0,0,0,0,0,0,0,0,0,0,0,0,0,0,0,0,0,0,0,0,0,0,0,0,-2.7924,-2.7924,0,-2.7915,-2.7915,-2.7915,-2.7872,-2.7871,-2.787,-2.7869,-2.786,-2.7861,-2.7861,0,0,0,0,0,0,0,0,0,0,0,0,0,-2.7902,-2.7903,-2.7924,-2.7923,-2.7923,-2.7915,-2.7915,-2.7915,-2.7872,-2.7871,-2.7869,-2.7868,-2.786,-2.7861,-2.7861,0,0,0,0,0,0,0,0,0,0,0,0,0,-2.7904,-2.7903,-2.7924,-2.7901,-2.7899,-2.7915,-2.7915,-2.7915,-2.7872,-2.7871,-2.7869,-2.7868,-2.7859,-2.7861,-2.7862,-2.7899,0,0,-2.7865,-2.7865,0,0,0,0,0,0,0,0,-2.7904,-2.7905,-2.7904,-2.7903,-2.79,-2.7893,-2.7904,-2.7909,-2.7873,-2.7882,-2.7869,-2.7867,-2.7872,-2.7872,-2.7874,-2.7898,-2.7898,-2.7865,-2.7866,-2.7866,-2.7866,0,0,0,0,0,0,0,-2.7904,-2.7905,-2.792,-2.7904,-2.7902,-2.7891,-2.789,-2.7905,-2.7886,-2.7881,-2.7878,-2.7878,-2.7871,-2.7873,-2.7873,-2.7898,-2.7865,-2.7866,-2.7867,-2.7867,-2.795,-2.7952,0,0,0,0,0,0,-2.7907,-2.7905,-2.792,-2.792,-2.7899,-2.7893,-2.7891,-2.7897,-2.7886,-2.7882,-2.7879,-2.7876,-2.7872,-2.7872,-2.7873,-2.7914,-2.7866,-2.7867,-2.7868,-2.7949,-2.795,-2.7952,0,0,0,0,0,0,-2.7907,-2.7909,-2.7921,-2.7912,-2.7912,-2.7895,-2.7901,-2.7897,-2.7899,-2.7884,-2.788,-2.7885,-2.7871,-2.7871,-2.7892,-2.7913,-2.7868,-2.7869,-2.7947,-2.7949,-2.7951,-2.7998,0,0,0,0,0,0,-2.7907,-2.7909,-2.7924,-2.7912,-2.7913,-2.7941,-2.7903,-2.7898,-2.7901,-2.7897,-2.7888,-2.7885,-2.7869,-2.7891,-2.7893,-2.7914,-2.7869,-2.7945,-2.7948,-2.7951,-2.7994,-2.8002,-2.8008,0,0,0,0,0,-2.7906,-2.7938,-2.7925,-2.7927,-2.7931,-2.7942,-2.7942,-2.7923,-2.7903,-2.7917,-2.7907,-2.7886,-2.7911,-2.7893,-2.7896,-2.7917,-2.7943,-2.7947,-2.795,-2.7991,-2.8,-2.8008,0,0,0,0,0,0,-2.7952,-2.7936,-2.7921,-2.795,-2.7948,-2.7935,-2.7952,-2.7933,-2.7937,-2.7933,-2.7909,-2.7907,-2.7931,-2.7926,-2.7907,-2.7951,-2.7923,-2.7927,-2.7954,-2.7962,-2.7968,-2.7969,-2.787,0,0,0,0,0,-2.7966,-2.7977,-2.7961,-2.7988,-2.7988,-2.797,-2.7974,-2.796,-2.7956,-2.7955,-2.7947,-2.7944,-2.7951,-2.7956,-2.7962,-2.7994,-2.799,-2.8009,-2.8016,-2.8021,-2.8025,-2.804,-2.8048,-2.7964,-2.7964,-2.7964,0,0,-2.7994,-2.7986,-2.7995,-2.7998,-2.7994,-2.8005,-2.797,-2.7983,-2.7991,-2.7957,-2.7976,-2.797,-2.7965,-2.7991,-2.8002,-2.7987,-2.8048,-2.8026,-2.8031,-2.8031,-2.8044,-2.8052,-2.8059,-2.7966,-2.7966,-2.7965,0,0,-2.8051,-2.8047,-2.8068,-2.8064,-2.8059,-2.8047,-2.8052,-2.8041,-2.8035,-2.8054,-2.8028,-2.8037,-2.805,-2.8047,-2.8048,-2.8101,-2.8081,-2.8104,-2.8138,-2.8153,-2.816,-2.8165,-2.8183,-2.819,-2.8108,-2.8108,-2.8108,0,-2.8087,-2.8102,-2.8081,-2.8096,-2.8097,-2.8066,-2.8087,-2.8085,-2.8082,-2.8083,-2.8067,-2.8082,-2.8077,-2.8101,-2.8113,-2.8115,-2.812,-2.8105,-2.816,-2.8166,-2.8171,-2.8188,-2.8195,-2.8111,-2.811,-2.811,-2.811,0,-2.8146,-2.8157,-2.8175,-2.8171,-2.8175,-2.8193,-2.8173,-2.8179,-2.8164,-2.8153,-2.8171,-2.8164,-2.8167,-2.8172,-2.8157,-2.8193,-2.8184,-2.8165,-2.8136,-2.8182,-2.8197,-2.8204,-2.8114,-2.8113,-2.8113,-2.8112,0,0,-2.8232,-2.8216,-2.8223,-2.822,-2.8211,-2.8219,-2.8235,-2.8237,-2.8242,-2.8241,-2.8253,-2.8264,-2.8245,-2.8245,-2.823,-2.8243,-2.8284,-2.8222,-2.8221,-2.8233,-2.8322,-2.8336,-2.8344,-2.8271,-2.8272,-2.8273,-2.8322,0,-2.8286,-2.8311,-2.8292,-2.8321,-2.833,-2.83,-2.8313,-2.8309,-2.8299,-2.8305,-2.8294,-2.8302,-2.8277,-2.8277,-2.8288,-2.8277,-2.8302,-2.8273,-2.8281,-2.8282,-2.8283,-2.8352,-2.8368,-2.8414,-2.8328,-2.8329,-2.833,0,-2.8351,-2.8352,-2.8382,-2.8369,-2.8372,-2.8385,-2.8384,-2.839,-2.8384,-2.8376,-2.8376,-2.8357,-2.837,-2.8342,-2.836,-2.8341,-2.8343,-2.8338,-2.834,-2.8339,-2.8308,-2.8353,-2.8428,-2.8435,-2.8339,-2.8338,-2.8338,0,-2.841,-2.8418,-2.8436,-2.8435,-2.8421,-2.843,-2.8425,-2.8417,-2.842,-2.8419,-2.842,-2.8422,-2.8422,-2.8424,-2.8405,-2.8387,-2.8425,-2.8396,-2.8418,-2.8418,-2.8427,-2.8427,-2.8503,-2.843,-2.843,-2.843,-2.843,0,-2.8471,-2.849,-2.8462,-2.8473,-2.8493,-2.847,-2.8491,-2.8482,-2.8475,-2.8484,-2.8459,-2.8467,-2.8442,-2.8448,-2.8434,-2.845,-2.8451,-2.8444,-2.844,-2.8446,-2.8447,-2.8447,-2.8443,-2.8432,-2.8431,-2.8431,-2.8431,0,-2.854,-2.8522,-2.854,-2.8524,-2.8521,-2.8536,-2.8523,-2.8532,-2.852,-2.8531,-2.8533,-2.8513,-2.8519,-2.85,-2.8503,-2.8493,-2.8517,-2.8508,-2.8519,-2.8516,-2.8538,-2.8536,-2.8617,-2.8626,-2.8548,-2.8549,-2.8549,0,-2.858,-2.8593,-2.8579,-2.8583,-2.8578,-2.8585,-2.8586,-2.8564,-2.8566,-2.8559,-2.8569,-2.8573,-2.8574,-2.8584,-2.857,-2.8571,-2.8562,-2.859,-2.8562,-2.8567,-2.8561,-2.856,-2.856,-2.8595,-2.8596,-2.8597,-2.8598,0,-2.8652,-2.8642,-2.8645,-2.8644,-2.8647,-2.8645,-2.8642,-2.8647,-2.8622,-2.8626,-2.8631,-2.8632,-2.8634,-2.8637,-2.8635,-2.8629,-2.8609,-2.8607,-2.8612,-2.8618,-2.8623,-2.8619,-2.8534,-2.8605,-2.8604,-2.8604,-2.8603,-2.8603,-2.8707,-2.8717,-2.8708,-2.8711,-2.8706,-2.8704,-2.8711,-2.8699,-2.8703,-2.8702,-2.8688,-2.8696,-2.8688,-2.8683,-2.8679,-2.8684,-2.8671,-2.8678,-2.868,-2.8682,-2.8685,-2.8623,-2.8684,-2.8684,-2.8683,-2.8683,-2.8683,0,-2.8776,-2.8769,-2.8772,-2.8768,-2.8771,-2.8751,-2.8746,-2.875,-2.8756,-2.875,-2.8751,-2.8756,-2.8759,-2.8745,-2.8745,-2.8751,-2.8742,-2.8752,-2.8751,-2.875,-2.8698,-2.8693,-2.876,-2.876,-2.876,-2.876,-2.876,-2.876,-2.8813,-2.8828,-2.8817,-2.8829,-2.8821,-2.8828,-2.8826,-2.8823,-2.8818,-2.8824,-2.8826,-2.8817,-2.8807,-2.8806,-2.8807,-2.8803,-2.8804,-2.8817,-2.881,-2.8761,-2.8754,-2.8747,-2.8742,-2.8818,-2.8818,-2.8861,-2.8861,-2.8862]}]]